| time (UTC) | temp C | wind direction | speed KPH | gust KPH | rain 1hr cm | rain 24hr cm | rain mn cm | humidity % | barometer mb |
| 20260505224058 | 24 | 19 | 1.6 | 4.8 | 0.00 | 0.00 | 0.00 | 81 | 2194.1 |
| 20260505223558 | 23 | 0 | 0.0 | 4.8 | 0.00 | 0.00 | 0.00 | 80 | 322.8 |
| 20260505223059 | 23 | 113 | 1.6 | 3.2 | 0.00 | 0.00 | 0.00 | 80 | 124.6 |
| 20260505222558 | 23 | 81 | 1.6 | 4.8 | 0.00 | 0.00 | 0.00 | 80 | 41.5 |
| 20260505222058 | 22 | 44 | 1.6 | 4.8 | 0.00 | 0.00 | 0.00 | 82 | 72.7 |
| 20260505221602 | 22 | 252 | 1.6 | 9.7 | 0.00 | 0.00 | 0.00 | 82 | 2142.4 |
| 20260505221057 | 21 | 262 | 0.0 | 9.7 | 0.00 | 0.00 | 0.00 | 82 | 290.5 |
| 20260505220559 | 21 | 175 | 4.8 | 9.7 | 0.00 | 0.00 | 0.00 | 81 | 1977.0 |
| 20260505220059 | 22 | 146 | 4.8 | 8.0 | 0.00 | 0.00 | 0.00 | 81 | 1780.6 |
| 20260505215558 | 22 | 96 | 3.2 | 4.8 | 0.00 | 0.00 | 0.00 | 81 | 1046.2 |
| 20260505215058 | 22 | 59 | 0.0 | 3.2 | 0.00 | 0.00 | 0.00 | 83 | 725.5 |
| 20260505214603 | 21 | 341 | 1.6 | 4.8 | 0.00 | 0.00 | 0.00 | 83 | 373.4 |
| 20260505214058 | 21 | 0 | 0.0 | 4.8 | 0.00 | 0.00 | 0.00 | 83 | 1035.9 |
| 20260505213558 | 21 | 142 | 1.6 | 3.2 | 0.00 | 0.00 | 0.00 | 84 | 124.6 |
| 20260505213104 | 21 | 142 | 1.6 | 3.2 | 0.00 | 0.00 | 0.00 | 85 | 394.1 |
| 20260505212558 | 20 | 0 | 1.6 | 3.2 | 0.00 | 0.00 | 0.00 | 87 | 383.8 |
| 20260505212058 | 20 | 352 | 0.0 | 3.2 | 0.00 | 0.00 | 0.00 | 88 | 1035.9 |
| 20260505211601 | 19 | 352 | 1.6 | 4.8 | 0.00 | 0.00 | 0.00 | 88 | 395.3 |
| 20260505211058 | 19 | 325 | 1.6 | 4.8 | 0.00 | 0.00 | 0.00 | 88 | 395.3 |
| 20260505210558 | 19 | 290 | 1.6 | 4.8 | 0.00 | 0.00 | 0.00 | 88 | 373.4 |
| 20260505210059 | 18 | 352 | 3.2 | 6.4 | 0.00 | 0.00 | 0.00 | 88 | 62.3 |
| 20260505205558 | 18 | 46 | 3.2 | 6.4 | 0.00 | 0.00 | 0.00 | 88 | 41.5 |
| 20260505205058 | 18 | 279 | 1.6 | 4.8 | 0.00 | 0.00 | 0.00 | 88 | 239.9 |
| 20260505204559 | 18 | 346 | 0.0 | 4.8 | 0.00 | 0.00 | 0.00 | 88 | 1780.6 |
| 20260505204058 | 18 | 53 | 1.6 | 4.8 | 0.00 | 0.00 | 0.00 | 88 | 1377.3 |
| 20260505203558 | 18 | 97 | 3.2 | 4.8 | 0.00 | 0.00 | 0.00 | 89 | 229.5 |
| 20260505203105 | 18 | 34 | 3.2 | 4.8 | 0.00 | 0.00 | 0.00 | 89 | 1046.2 |
| 20260505202558 | 18 | 352 | 3.2 | 4.8 | 0.00 | 0.00 | 0.00 | 89 | 1542.8 |
| 20260505202058 | 18 | 28 | 1.6 | 4.8 | 0.00 | 0.00 | 0.00 | 89 | 1863.3 |
| 20260505201606 | 18 | 29 | 3.2 | 4.8 | 0.00 | 0.00 | 0.00 | 89 | 456.3 |
| 20260505201101 | 17 | 31 | 1.6 | 3.2 | 0.00 | 0.00 | 0.00 | 89 | 5.8 |
| 20260505200558 | 17 | 11 | 0.0 | 6.4 | 0.00 | 0.00 | 0.00 | 89 | 1129.0 |
| 20260505200059 | 17 | 11 | 0.0 | 6.4 | 0.00 | 0.00 | 0.00 | 89 | 302.1 |
| 20260505195600 | 17 | 56 | 4.8 | 6.4 | 0.00 | 0.00 | 0.00 | 89 | 2111.4 |
| 20260505195100 | 17 | 45 | 3.2 | 6.4 | 0.00 | 0.00 | 0.00 | 89 | 405.7 |
| 20260505194559 | 17 | 9 | 0.0 | 6.4 | 0.00 | 0.00 | 0.00 | 89 | 559.8 |
| 20260505194100 | 17 | 350 | 3.2 | 6.4 | 0.00 | 0.00 | 0.00 | 89 | 63.5 |
| 20260505193602 | 17 | 5 | 3.2 | 4.8 | 0.00 | 0.00 | 0.00 | 89 | 41.5 |
| 20260505193059 | 17 | 43 | 1.6 | 3.2 | 0.00 | 0.00 | 0.00 | 89 | 404.5 |
| 20260505192558 | 17 | 30 | 1.6 | 3.2 | 0.00 | 0.00 | 0.00 | 89 | 72.7 |
| 20260505192100 | 17 | 0 | 1.6 | 4.8 | 0.00 | 0.00 | 0.00 | 89 | 642.7 |
| 20260505191615 | 17 | 20 | 3.2 | 4.8 | 0.00 | 0.00 | 0.00 | 89 | 1708.2 |
| 20260505191057 | 17 | 28 | 1.6 | 4.8 | 0.00 | 0.00 | 0.00 | 89 | 735.8 |
| 20260505190559 | 17 | 9 | 1.6 | 4.8 | 0.00 | 0.00 | 0.00 | 89 | 642.7 |
| 20260505190057 | 17 | 352 | 1.6 | 3.2 | 0.00 | 0.00 | 0.00 | 89 | 42.7 |
| 20260505185558 | 17 | 272 | 0.0 | 3.2 | 0.00 | 0.00 | 0.00 | 89 | 1222.1 |
| 20260505185101 | 17 | 272 | 0.0 | 3.2 | 0.00 | 0.00 | 0.00 | 89 | 1387.6 |
| 20260505184601 | 17 | 272 | 1.6 | 3.2 | 0.00 | 0.00 | 0.00 | 89 | 1035.9 |
| 20260505184058 | 17 | 0 | 0.0 | 3.2 | 0.00 | 0.00 | 0.00 | 89 | 653.0 |
| 20260505183600 | 17 | 272 | 1.6 | 3.2 | 0.00 | 0.00 | 0.00 | 89 | 787.6 |
| 20260505183058 | 17 | 272 | 0.0 | 3.2 | 0.00 | 0.00 | 0.00 | 89 | 632.3 |
| 20260505182558 | 17 | 272 | 1.6 | 4.8 | 0.00 | 0.00 | 0.00 | 88 | 1977.0 |
| 20260505182105 | 17 | 0 | 1.6 | 4.8 | 0.00 | 0.00 | 0.00 | 89 | 322.8 |
| 20260505181558 | 17 | 333 | 1.6 | 8.0 | 0.00 | 0.00 | 0.00 | 88 | 1790.9 |
| 20260505181057 | 17 | 351 | 1.6 | 8.0 | 0.00 | 0.00 | 0.00 | 89 | 2028.7 |
| 20260505180558 | 17 | 334 | 6.4 | 8.0 | 0.00 | 0.00 | 0.00 | 89 | 300.9 |
| 20260505180105 | 17 | 336 | 4.8 | 6.4 | 0.00 | 0.00 | 0.00 | 89 | 1377.3 |
| 20260505175601 | 17 | 340 | 0.0 | 3.2 | 0.00 | 0.00 | 0.00 | 89 | 124.6 |
| 20260505175058 | 17 | 38 | 1.6 | 3.2 | 0.00 | 0.00 | 0.00 | 89 | 891.1 |
| 20260505174612 | 17 | 43 | 0.0 | 3.2 | 0.00 | 0.00 | 0.00 | 88 | 2028.7 |
| 20260505174101 | 17 | 0 | 0.0 | 3.2 | 0.00 | 0.00 | 0.00 | 88 | 1201.4 |
| 20260505173600 | 17 | 352 | 0.0 | 3.2 | 0.00 | 0.00 | 0.00 | 88 | 1811.6 |
| 20260505173059 | 17 | 352 | 1.6 | 8.0 | 0.00 | 0.00 | 0.00 | 88 | 321.6 |
| 20260505172600 | 17 | 322 | 0.0 | 8.0 | 0.00 | 0.00 | 0.00 | 88 | 1294.5 |
| 20260505172057 | 17 | 325 | 3.2 | 8.0 | 0.00 | 0.00 | 0.00 | 88 | 208.8 |
| 20260505171558 | 17 | 352 | 1.6 | 4.8 | 0.00 | 0.00 | 0.00 | 88 | 653.0 |
| 20260505171058 | 17 | 18 | 1.6 | 4.8 | 0.00 | 0.00 | 0.00 | 88 | 228.3 |
| 20260505170558 | 17 | 20 | 1.6 | 4.8 | 0.00 | 0.00 | 0.00 | 88 | 1211.8 |
| 20260505170059 | 17 | 19 | 1.6 | 4.8 | 0.00 | 0.00 | 0.00 | 88 | 539.1 |
| 20260505165558 | 17 | 44 | 1.6 | 4.8 | 0.00 | 0.00 | 0.00 | 88 | 136.2 |
| 20260505165058 | 17 | 53 | 3.2 | 4.8 | 0.00 | 0.00 | 0.00 | 88 | 1480.7 |
| 20260505164557 | 17 | 53 | 1.6 | 3.2 | 0.00 | 0.00 | 0.00 | 88 | 1780.6 |
| 20260505164058 | 17 | 17 | 1.6 | 3.2 | 0.00 | 0.00 | 0.00 | 88 | 1894.3 |
| 20260505163558 | 17 | 0 | 0.0 | 1.6 | 0.00 | 0.00 | 0.00 | 88 | 1625.5 |
| 20260505163057 | 17 | 0 | 0.0 | 3.2 | 0.00 | 0.00 | 0.00 | 88 | 642.7 |
| 20260505162557 | 17 | 17 | 0.0 | 4.8 | 0.00 | 0.00 | 0.00 | 88 | 653.0 |
| 20260505162059 | 17 | 31 | 3.2 | 4.8 | 0.00 | 0.00 | 0.00 | 88 | 322.8 |
| 20260505161601 | 17 | 323 | 1.6 | 3.2 | 0.00 | 0.00 | 0.00 | 88 | 2121.8 |
| 20260505161058 | 17 | 273 | 0.0 | 4.8 | 0.00 | 0.00 | 0.00 | 88 | 1201.4 |
| 20260505160601 | 17 | 0 | 0.0 | 4.8 | 0.00 | 0.00 | 0.00 | 88 | 2121.8 |
| 20260505153101 | 17 | 279 | 0.0 | 4.8 | 0.00 | 0.00 | 0.00 | 86 | 1449.7 |
| 20260505152558 | 17 | 293 | 1.6 | 4.8 | 0.00 | 0.00 | 0.00 | 87 | 2204.5 |
| 20260505152101 | 17 | 148 | 0.0 | 4.8 | 0.00 | 0.00 | 0.00 | 87 | 1697.9 |
| 20260505151559 | 17 | 30 | 3.2 | 4.8 | 0.00 | 0.00 | 0.00 | 87 | 1460.0 |
| 20260505151102 | 17 | 312 | 0.0 | 4.8 | 0.00 | 0.00 | 0.00 | 87 | 704.8 |
| 20260505150559 | 17 | 292 | 1.6 | 4.8 | 0.00 | 0.00 | 0.00 | 87 | 2214.8 |
| 20260505140601 | 17 | 299 | 3.2 | 4.8 | 0.00 | 0.00 | 0.00 | 87 | 5.8 |
| 20260505130110 | 17 | 11 | 1.6 | 6.4 | 0.00 | 0.00 | 0.00 | 85 | 1718.5 |
| 20260505124618 | 18 | 348 | 3.2 | 6.4 | 0.00 | 0.00 | 0.00 | 86 | 456.3 |
| 20260505124057 | 18 | 315 | 1.6 | 6.4 | 0.00 | 0.00 | 0.00 | 86 | 1801.2 |
| 20260505123557 | 18 | 307 | 4.8 | 6.4 | 0.00 | 0.00 | 0.00 | 86 | 1232.5 |
| 20260505123116 | 18 | 279 | 3.2 | 4.8 | 0.00 | 0.00 | 0.00 | 86 | 374.6 |
| 20260505122557 | 18 | 352 | 3.2 | 4.8 | 0.00 | 0.00 | 0.00 | 86 | 1149.7 |
| 20260505122100 | 18 | 290 | 1.6 | 4.8 | 0.00 | 0.00 | 0.00 | 86 | 239.9 |
| 20260505121559 | 18 | 294 | 3.2 | 4.8 | 0.00 | 0.00 | 0.00 | 85 | 1728.9 |
| 20260505121103 | 18 | 285 | 1.6 | 6.4 | 0.00 | 0.00 | 0.00 | 85 | 405.7 |
| 20260505120558 | 18 | 284 | 3.2 | 6.4 | 0.00 | 0.00 | 0.00 | 86 | 2111.4 |
| 20260505115600 | 18 | 327 | 3.2 | 6.4 | 0.00 | 0.00 | 0.00 | 85 | 239.9 |
| 20260505115100 | 18 | 330 | 1.6 | 6.4 | 0.00 | 0.00 | 0.00 | 85 | 63.5 |
| 20260505114602 | 19 | 327 | 1.6 | 4.8 | 0.00 | 0.00 | 0.00 | 86 | 291.7 |
| 20260505114100 | 19 | 0 | 0.0 | 4.8 | 0.00 | 0.00 | 0.00 | 86 | 41.5 |
| 20260505113559 | 19 | 0 | 0.0 | 4.8 | 0.00 | 0.00 | 0.00 | 86 | 539.1 |
| 20260505113101 | 19 | 310 | 3.2 | 9.7 | 0.00 | 0.00 | 0.00 | 86 | 2049.4 |
| 20260505112602 | 19 | 295 | 3.2 | 9.7 | 0.00 | 0.00 | 0.00 | 86 | 901.4 |
| 20260505112058 | 19 | 311 | 6.4 | 9.7 | 0.00 | 0.00 | 0.00 | 87 | 1066.9 |
| 20260505111602 | 19 | 303 | 4.8 | 11.3 | 0.00 | 0.00 | 0.00 | 87 | 239.9 |
| 20260505111101 | 19 | 328 | 6.4 | 11.3 | 0.00 | 0.00 | 0.00 | 87 | 385.0 |
| 20260505110600 | 19 | 279 | 3.2 | 4.8 | 0.00 | 0.00 | 0.00 | 87 | 145.3 |
| 20260505102059 | 20 | 332 | 1.6 | 3.2 | 0.00 | 0.05 | 0.00 | 86 | 973.8 |
| 20260505101610 | 20 | 332 | 1.6 | 4.8 | 0.00 | 0.05 | 0.00 | 85 | 1035.9 |
| 20260505101102 | 20 | 345 | 3.2 | 4.8 | 0.00 | 0.05 | 0.00 | 85 | 394.1 |
| 20260505100603 | 21 | 316 | 0.0 | 3.2 | 0.00 | 0.05 | 0.00 | 85 | 653.0 |
| 20260505100107 | 21 | 316 | 1.6 | 3.2 | 0.00 | 0.05 | 0.00 | 84 | 1718.5 |
| 20260505095559 | 21 | 349 | 0.0 | 8.0 | 0.00 | 0.08 | 0.00 | 84 | 1480.7 |
| 20260505095058 | 21 | 292 | 1.6 | 9.7 | 0.00 | 0.08 | 0.00 | 84 | 238.7 |
| 20260505094600 | 21 | 225 | 3.2 | 9.7 | 0.00 | 0.08 | 0.00 | 84 | 725.5 |
| 20260505094059 | 21 | 242 | 3.2 | 8.0 | 0.00 | 0.08 | 0.00 | 84 | 146.5 |
| 20260505093601 | 21 | 221 | 3.2 | 8.0 | 0.00 | 0.08 | 0.00 | 84 | 1222.1 |
| 20260505093107 | 21 | 217 | 3.2 | 12.9 | 0.00 | 0.08 | 0.00 | 84 | 1553.1 |
| 20260505092603 | 21 | 279 | 4.8 | 16.1 | 0.00 | 0.08 | 0.00 | 84 | 715.1 |
| 20260505092100 | 21 | 225 | 3.2 | 16.1 | 0.00 | 0.08 | 0.00 | 84 | 632.3 |
| 20260505091559 | 21 | 227 | 8.0 | 14.5 | 0.00 | 0.08 | 0.00 | 84 | 42.7 |
| 20260505091103 | 21 | 257 | 1.6 | 6.4 | 0.00 | 0.08 | 0.00 | 83 | 704.8 |
| 20260505090559 | 21 | 288 | 1.6 | 8.0 | 0.00 | 0.08 | 0.00 | 83 | 1532.4 |
| 20260505090106 | 22 | 271 | 4.8 | 12.9 | 0.00 | 0.08 | 0.00 | 84 | 787.6 |
| 20260505085559 | 22 | 267 | 3.2 | 12.9 | 0.00 | 0.08 | 0.00 | 84 | 798.0 |
| 20260505085059 | 22 | 232 | 4.8 | 12.9 | 0.00 | 0.08 | 0.00 | 84 | 63.5 |
| 20260505084605 | 21 | 180 | 6.4 | 12.9 | 0.00 | 0.08 | 0.00 | 84 | 208.8 |
| 20260505084059 | 21 | 199 | 3.2 | 8.0 | 0.00 | 0.08 | 0.00 | 84 | 1222.1 |
| 20260505083600 | 21 | 260 | 3.2 | 8.0 | 0.00 | 0.08 | 0.00 | 84 | 1966.7 |
| 20260505083105 | 21 | 243 | 3.2 | 6.4 | 0.00 | 0.08 | 0.00 | 84 | 704.8 |
| 20260505082558 | 21 | 226 | 3.2 | 6.4 | 0.00 | 0.08 | 0.00 | 84 | 1811.6 |
| 20260505082059 | 21 | 236 | 3.2 | 6.4 | 0.00 | 0.08 | 0.00 | 84 | 642.7 |
| 20260505081624 | 21 | 254 | 1.6 | 6.4 | 0.00 | 0.08 | 0.00 | 84 | 1480.7 |
| 20260505081100 | 21 | 263 | 1.6 | 6.4 | 0.00 | 0.08 | 0.00 | 83 | 1790.9 |
| 20260505080559 | 21 | 278 | 1.6 | 6.4 | 0.00 | 0.08 | 0.00 | 83 | 1284.2 |
| 20260505075601 | 21 | 292 | 3.2 | 6.4 | 0.00 | 0.08 | 0.00 | 82 | 1801.2 |
| 20260505075059 | 21 | 309 | 3.2 | 4.8 | 0.00 | 0.08 | 0.00 | 82 | 1863.3 |
| 20260505074559 | 22 | 286 | 3.2 | 4.8 | 0.00 | 0.08 | 0.00 | 82 | 704.8 |
| 20260505074059 | 22 | 323 | 3.2 | 4.8 | 0.00 | 0.08 | 0.00 | 82 | 72.7 |
| 20260505073559 | 22 | 352 | 1.6 | 3.2 | 0.00 | 0.08 | 0.00 | 82 | 72.7 |
| 20260505073104 | 22 | 349 | 0.0 | 3.2 | 0.00 | 0.08 | 0.00 | 82 | 322.8 |
| 20260505072558 | 23 | 346 | 1.6 | 3.2 | 0.00 | 0.08 | 0.00 | 82 | 1377.3 |
| 20260505072059 | 23 | 340 | 3.2 | 3.2 | 0.00 | 0.08 | 0.00 | 81 | 787.6 |
| 20260505071559 | 23 | 340 | 3.2 | 4.8 | 0.00 | 0.08 | 0.00 | 80 | 1615.1 |
| 20260505071059 | 24 | 311 | 1.6 | 4.8 | 0.00 | 0.08 | 0.00 | 79 | 2194.1 |
| 20260505070559 | 25 | 270 | 3.2 | 11.3 | 0.00 | 0.08 | 0.00 | 79 | 374.6 |
| 20260505070100 | 25 | 262 | 3.2 | 11.3 | 0.00 | 0.08 | 0.00 | 77 | 1470.4 |
| 20260505065558 | 25 | 265 | 4.8 | 12.9 | 0.00 | 0.08 | 0.00 | 76 | 1542.8 |
| 20260505065058 | 26 | 242 | 6.4 | 12.9 | 0.00 | 0.08 | 0.00 | 75 | 715.1 |
| 20260505064601 | 26 | 245 | 6.4 | 19.3 | 0.00 | 0.08 | 0.00 | 76 | 2214.8 |
| 20260505064059 | 26 | 203 | 8.0 | 19.3 | 0.00 | 0.08 | 0.00 | 76 | 642.7 |
| 20260505063559 | 26 | 202 | 6.4 | 14.5 | 0.00 | 0.08 | 0.00 | 75 | 53.1 |
| 20260505063113 | 26 | 204 | 8.0 | 16.1 | 0.00 | 0.08 | 0.00 | 75 | 1884.0 |
| 20260505062559 | 26 | 224 | 9.7 | 16.1 | 0.00 | 0.08 | 0.00 | 75 | 1470.4 |
| 20260505062059 | 26 | 192 | 6.4 | 14.5 | 0.00 | 0.08 | 0.00 | 75 | 1035.9 |
| 20260505061621 | 26 | 221 | 9.7 | 14.5 | 0.00 | 0.08 | 0.00 | 75 | 229.5 |
| 20260505061058 | 26 | 219 | 4.8 | 14.5 | 0.00 | 0.08 | 0.00 | 76 | 1211.8 |
| 20260505060601 | 26 | 239 | 6.4 | 16.1 | 0.00 | 0.08 | 0.00 | 75 | 1056.6 |
| 20260505060058 | 26 | 225 | 8.0 | 16.1 | 0.00 | 0.08 | 0.00 | 74 | 725.5 |
| 20260505055559 | 26 | 215 | 6.4 | 14.5 | 0.00 | 0.08 | 0.00 | 74 | 1946.0 |
| 20260505055059 | 26 | 220 | 6.4 | 12.9 | 0.00 | 0.08 | 0.00 | 74 | 1222.1 |
| 20260505054558 | 26 | 184 | 6.4 | 12.9 | 0.00 | 0.08 | 0.00 | 74 | 394.1 |
| 20260505054100 | 26 | 161 | 8.0 | 16.1 | 0.00 | 0.08 | 0.00 | 74 | 53.1 |
| 20260505053559 | 26 | 210 | 8.0 | 16.1 | 0.00 | 0.08 | 0.00 | 75 | 1863.3 |
| 20260505053100 | 26 | 209 | 4.8 | 14.5 | 0.00 | 0.08 | 0.00 | 75 | 1811.6 |
| 20260505052558 | 26 | 203 | 6.4 | 14.5 | 0.00 | 0.08 | 0.00 | 75 | 42.7 |
| 20260505052059 | 26 | 177 | 6.4 | 12.9 | 0.00 | 0.08 | 0.00 | 76 | 1304.9 |
| 20260505051559 | 26 | 219 | 6.4 | 12.9 | 0.00 | 0.08 | 0.00 | 75 | 1066.9 |
| 20260505051059 | 26 | 208 | 6.4 | 11.3 | 0.00 | 0.08 | 0.00 | 75 | 1563.4 |
| 20260505050600 | 26 | 207 | 4.8 | 11.3 | 0.00 | 0.08 | 0.00 | 75 | 394.1 |
| 20260505050106 | 26 | 151 | 4.8 | 11.3 | 0.00 | 0.08 | 0.00 | 73 | 72.7 |
| 20260505041557 | 26 | 228 | 9.7 | 17.7 | 0.00 | 0.08 | 0.00 | 75 | 715.1 |
| 20260505041058 | 26 | 169 | 8.0 | 16.1 | 0.00 | 0.08 | 0.00 | 76 | 155.7 |
| 20260505040558 | 26 | 204 | 6.4 | 16.1 | 0.00 | 0.08 | 0.00 | 76 | 622.0 |
| 20260505040101 | 26 | 205 | 8.0 | 16.1 | 0.00 | 0.08 | 0.00 | 76 | 1790.9 |
| 20260505035600 | 26 | 214 | 4.8 | 17.7 | 0.00 | 0.08 | 0.00 | 77 | 466.6 |
| 20260505035101 | 26 | 177 | 11.3 | 17.7 | 0.00 | 0.08 | 0.00 | 76 | 291.7 |
| 20260505034558 | 26 | 245 | 9.7 | 17.7 | 0.00 | 0.08 | 0.00 | 78 | 477.0 |
| 20260505034059 | 26 | 210 | 9.7 | 17.7 | 0.00 | 0.08 | 0.00 | 77 | 394.1 |
| 20260505033559 | 26 | 178 | 11.3 | 24.1 | 0.00 | 0.08 | 0.00 | 77 | 51.9 |
| 20260505033059 | 26 | 165 | 11.3 | 24.1 | 0.00 | 0.08 | 0.00 | 77 | 456.3 |
| 20260505032559 | 26 | 186 | 11.3 | 20.9 | 0.00 | 0.08 | 0.00 | 76 | 466.6 |
| 20260505032058 | 26 | 159 | 14.5 | 20.9 | 0.00 | 0.08 | 0.00 | 75 | 72.7 |
| 20260505031557 | 26 | 171 | 14.5 | 20.9 | 0.00 | 0.08 | 0.00 | 74 | 322.8 |
| 20260505031059 | 26 | 193 | 8.0 | 19.3 | 0.00 | 0.08 | 0.00 | 75 | 1398.0 |
| 20260505030558 | 26 | 183 | 8.0 | 19.3 | 0.00 | 0.08 | 0.00 | 75 | 818.6 |
| 20260505030059 | 26 | 235 | 12.9 | 19.3 | 0.00 | 0.08 | 0.00 | 74 | 311.3 |
| 20260505025559 | 27 | 202 | 9.7 | 19.3 | 0.00 | 0.08 | 0.00 | 75 | 135.0 |
| 20260505025102 | 26 | 188 | 12.9 | 19.3 | 0.00 | 0.08 | 0.00 | 75 | 984.2 |
| 20260505024558 | 27 | 166 | 9.7 | 17.7 | 0.00 | 0.08 | 0.00 | 75 | 383.8 |
| 20260505024059 | 26 | 200 | 9.7 | 19.3 | 0.00 | 0.08 | 0.00 | 75 | 1056.6 |
| 20260505023559 | 27 | 231 | 11.3 | 19.3 | 0.00 | 0.08 | 0.00 | 73 | 1377.3 |
| 20260505023104 | 27 | 161 | 6.4 | 16.1 | 0.00 | 0.08 | 0.00 | 73 | 156.9 |
| 20260505022558 | 26 | 247 | 4.8 | 11.3 | 0.00 | 0.08 | 0.00 | 74 | 1728.9 |
| 20260505022059 | 26 | 180 | 6.4 | 17.7 | 0.00 | 0.08 | 0.00 | 74 | 1118.7 |
| 20260505021557 | 27 | 199 | 9.7 | 24.1 | 0.00 | 0.08 | 0.00 | 74 | 1149.7 |
| 20260505021059 | 27 | 207 | 12.9 | 24.1 | 0.00 | 0.08 | 0.00 | 74 | 798.0 |
| 20260505020558 | 27 | 184 | 11.3 | 22.5 | 0.00 | 0.08 | 0.00 | 73 | 2194.1 |
| 20260505020100 | 27 | 178 | 14.5 | 22.5 | 0.00 | 0.08 | 0.00 | 73 | 238.7 |
| 20260505015559 | 27 | 159 | 8.0 | 19.3 | 0.00 | 0.08 | 0.00 | 70 | 373.4 |
| 20260505015059 | 27 | 188 | 11.3 | 19.3 | 0.00 | 0.08 | 0.00 | 70 | 1066.9 |
| 20260505014608 | 26 | 229 | 12.9 | 22.5 | 0.00 | 0.08 | 0.00 | 71 | 1398.0 |
| 20260505014058 | 26 | 184 | 8.0 | 22.5 | 0.00 | 0.08 | 0.00 | 74 | 715.1 |
| 20260505013559 | 26 | 190 | 11.3 | 19.3 | 0.00 | 0.08 | 0.00 | 75 | 1232.5 |
| 20260505013058 | 26 | 196 | 8.0 | 19.3 | 0.00 | 0.08 | 0.00 | 76 | 798.0 |
| 20260505012558 | 26 | 193 | 11.3 | 19.3 | 0.00 | 0.08 | 0.00 | 75 | 208.8 |
| 20260505012058 | 26 | 162 | 9.7 | 19.3 | 0.00 | 0.08 | 0.00 | 73 | 1718.5 |
| 20260505011559 | 26 | 194 | 11.3 | 17.7 | 0.00 | 0.08 | 0.00 | 73 | 41.5 |
| 20260505011059 | 26 | 147 | 8.0 | 20.9 | 0.00 | 0.08 | 0.00 | 74 | 953.2 |
| 20260505010559 | 26 | 205 | 11.3 | 20.9 | 0.00 | 0.08 | 0.00 | 74 | 1863.3 |
| 20260505010118 | 26 | 196 | 8.0 | 17.7 | 0.00 | 0.08 | 0.00 | 76 | 1863.3 |
| 20260505005558 | 26 | 171 | 9.7 | 17.7 | 0.00 | 0.08 | 0.00 | 76 | 622.0 |
| 20260505005058 | 26 | 157 | 9.7 | 22.5 | 0.00 | 0.08 | 0.00 | 76 | 136.2 |
| 20260505004557 | 26 | 128 | 11.3 | 22.5 | 0.00 | 0.08 | 0.00 | 76 | 321.6 |
| 20260505004058 | 26 | 112 | 11.3 | 22.5 | 0.00 | 0.08 | 0.00 | 77 | 870.4 |
| 20260505003558 | 26 | 155 | 11.3 | 22.5 | 0.00 | 0.08 | 0.00 | 77 | 1532.4 |
| 20260505003100 | 26 | 153 | 9.7 | 19.3 | 0.00 | 0.08 | 0.00 | 78 | 2204.5 |
| 20260505002558 | 26 | 99 | 9.7 | 19.3 | 0.00 | 0.08 | 0.00 | 77 | 1222.1 |
| 20260505002059 | 25 | 187 | 9.7 | 16.1 | 0.00 | 0.08 | 0.00 | 79 | 632.3 |
| 20260505001612 | 25 | 219 | 9.7 | 19.3 | 0.00 | 0.08 | 0.00 | 79 | 1801.2 |
| 20260505001102 | 25 | 179 | 9.7 | 19.3 | 0.00 | 0.08 | 0.00 | 78 | 1542.8 |
| 20260505000558 | 25 | 171 | 11.3 | 17.7 | 0.00 | 0.08 | 0.00 | 78 | 73.9 |
| 20260505000100 | 25 | 178 | 6.4 | 20.9 | 0.00 | 0.08 | 0.00 | 79 | 374.6 |
| 20260504235558 | 25 | 192 | 9.7 | 20.9 | 0.00 | 0.08 | 0.00 | 80 | 42.7 |
| 20260504235057 | 25 | 151 | 8.0 | 12.9 | 0.00 | 0.08 | 0.00 | 79 | 1139.4 |
| 20260504234558 | 25 | 186 | 6.4 | 20.9 | 0.00 | 0.08 | 0.00 | 80 | 62.3 |
| 20260504234058 | 25 | 207 | 11.3 | 20.9 | 0.00 | 0.08 | 0.00 | 80 | 1956.3 |
| 20260504233558 | 25 | 164 | 6.4 | 17.7 | 0.00 | 0.08 | 0.00 | 80 | 383.8 |
| 20260504233058 | 24 | 165 | 4.8 | 11.3 | 0.00 | 0.08 | 0.00 | 81 | 901.4 |
| 20260504232559 | 24 | 211 | 4.8 | 12.9 | 0.00 | 0.08 | 0.00 | 81 | 2049.4 |
| 20260504232058 | 24 | 190 | 6.4 | 12.9 | 0.00 | 0.08 | 0.00 | 81 | 984.2 |
| 20260504231600 | 23 | 212 | 6.4 | 9.7 | 0.00 | 0.08 | 0.00 | 82 | 155.7 |
| 20260504231058 | 23 | 0 | 1.6 | 4.8 | 0.00 | 0.08 | 0.00 | 84 | 383.8 |
| 20260504230558 | 23 | 207 | 0.0 | 4.8 | 0.00 | 0.08 | 0.00 | 84 | 1563.4 |
| 20260504230100 | 23 | 150 | 1.6 | 6.4 | 0.00 | 0.08 | 0.00 | 85 | 145.3 |
| 20260504225559 | 23 | 277 | 3.2 | 6.4 | 0.00 | 0.08 | 0.00 | 86 | 456.3 |
| 20260504225101 | 23 | 0 | 1.6 | 4.8 | 0.00 | 0.08 | 0.00 | 87 | 1563.4 |
| 20260504224558 | 22 | 219 | 1.6 | 9.7 | 0.00 | 0.08 | 0.00 | 87 | 466.6 |